Lapse_Rate
9.3 9.3 9.3 9.4 9.3 9.2 5.0 2.5 6.4 4.8 3.3 5.1 6.1 6.5 6.5 7.0 6.6 7.0 6.5 6.5 6.5 6.5 6.5 6.5 6.5 6.5 6.5 6.9 6.7 6.5 6.5 6.5 6.5 6.5 6.5 6.5 6.5 6.5 6.5 6.5 6.5 6.5 6.5 6.5
9.3 9.3 9.3 9.2 9.0 8.5 4.2 4.0 3.7 3.9 4.3 6.5 6.5 6.5 6.5 6.7 6.5 6.5 6.5 6.5 6.5 6.5 6.5 6.5 6.5 6.5 6.7 7.0 6.5 6.5 6.5 6.5 6.5 6.5 6.5 6.5 6.5 6.5 6.5 6.5 6.5 6.5 6.5 6.5
9.4 9.4 9.4 9.3 9.1 8.2 3.3 4.3 6.5 4.5 3.6 4.7 6.4 6.5 6.5 6.5 6.7 6.6 6.7 6.5 6.6 6.5 6.5 6.5 6.5 6.5 6.5 6.9 6.7 7.0 6.8 6.5 6.5 6.5 6.5 6.5 6.5 6.5 6.5 6.5 6.5 6.5 6.5 6.5
9.3 9.3 9.6 9.5 9.3 8.3 4.4 3.8 6.1 6.0 6.5 6.3 6.4 6.5 6.5 6.5 6.5 6.4 6.2 6.5 6.5 6.5 6.5 6.5 6.5 6.5 6.5 6.6 6.8 6.6 6.5 6.5 6.5 6.5 6.5 6.5 6.5 6.5 6.5 6.5 6.5 6.5 6.5 6.5
9.6 9.3 9.4 9.4 9.1 7.9 4.8 5.0 5.8 4.9 5.3 5.5 6.4 6.5 6.5 6.5 6.5 6.5 6.5 6.5 6.5 6.5 6.5 6.5 6.5 6.5 6.5 6.5 6.5 6.5 6.5 6.5 6.5 6.5 6.5 6.5 6.5 6.5 6.5 6.5 6.5 6.5 6.5 6.5
9.5 9.3 9.5 9.5 9.2 7.9 6.6 4.5 5.1 6.4 6.1 6.2 6.5 6.5 6.5 6.5 6.5 6.5 6.5 6.5 6.5 6.5 6.5 5.3 4.7 4.9 5.8 6.5 6.5 6.5 6.5 6.5 6.5 6.5 6.5 6.5 6.5 6.5 6.5 6.5 6.5 6.5 6.5 6.5
9.3 9.6 9.5 9.1 9.4 8.0 5.7 7.1 6.7 6.0 6.5 6.5 6.5 6.5 6.6 6.5 6.5 6.5 6.5 6.4 6.5 6.4 5.7 4.8 4.9 4.7 6.1 6.4 6.5 6.3 6.5 6.5 6.5 6.5 6.5 6.5 6.5 6.5 6.5 6.5 6.5 6.5 6.5 6.5
9.5 9.6 9.4 9.5 9.4 8.7 4.6 4.5 6.4 5.6 6.5 6.6 6.4 6.4 6.4 6.6 6.1 6.5 6.6 7.0 6.7 4.8 5.5 6.5 6.5 6.5 6.5 6.5 6.5 6.5 6.5 6.5 6.5 6.5 6.5 6.5 6.5 6.5 6.5 6.5 6.5 6.5 6.5 6.5
9.6 9.5 9.5 9.6 9.5 9.0 4.7 4.2 4.7 6.3 5.5 6.3 6.6 6.5 6.7 6.5 6.5 6.5 6.6 6.2 5.0 5.5 6.5 6.5 6.5 6.5 6.5 6.5 6.5 6.5 6.5 6.5 6.5 6.5 6.5 6.5 6.5 6.5 6.9 6.6 6.5 6.6 6.8 6.6
9.6 9.5 9.6 9.5 9.5 9.0 5.8 5.0 6.1 6.7 4.7 5.9 5.7 6.3 6.6 6.0 5.7 6.5 6.1 5.8 6.0 5.9 6.5 6.5 6.5 6.5 6.5 6.5 6.5 6.5 6.5 6.5 6.5 6.5 6.5 6.5 6.5 6.7 7.0 6.5 6.5 6.9 7.0 7.0
9.5 9.5 9.5 9.6 9.6 9.0 6.2 5.4 7.3 7.0 3.7 3.9 5.5 6.2 6.9 6.9 6.3 6.5 5.2 6.1 5.9 6.4 6.5 6.5 6.5 6.5 6.5 6.5 6.5 6.5 6.5 6.5 6.5 6.5 6.5 6.5 6.9 6.7 6.5 6.7 7.1 7.2 7.2 7.2
9.5 9.5 9.5 9.5 9.5 8.8 6.5 4.9 6.3 7.0 6.8 4.9 6.0 5.7 6.4 7.0 7.3 6.2 5.7 5.7 4.7 6.0 6.5 6.5 6.5 6.5 6.5 6.5 6.5 6.5 6.5 6.5 6.5 6.5 6.5 6.7 7.0 6.8 7.1 7.2 7.1 7.3 7.3 7.5
9.4 9.4 9.4 9.4 9.4 8.5 7.0 4.6 5.7 6.4 7.5 5.6 5.6 6.6 7.2 6.6 6.0 6.3 4.8 5.7 5.7 3.3 3.5 3.1 6.4 6.5 6.5 6.5 6.5 6.5 6.5 4.8 6.5 6.5 6.4 6.6 7.0 7.3 7.4 7.4 7.1 7.2 7.4 7.2
9.4 9.4 9.4 9.4 9.1 8.2 6.7 5.4 6.6 6.1 6.8 6.8 5.9 6.7 7.0 7.2 5.7 5.8 5.8 5.8 5.9 5.6 5.5 2.8 6.5 6.5 6.8 6.5 6.5 6.5 6.3 5.7 6.5 6.5 5.9 6.2 6.6 6.2 6.4 6.8 7.1 7.5 7.5 7.1
9.4 9.4 9.1 9.1 8.4 7.5 6.3 5.9 7.9 8.1 6.9 6.1 5.5 5.4 7.3 6.0 5.5 5.5 5.4 5.2 4.0 5.8 5.7 6.4 6.5 6.8 6.6 6.6 6.5 6.5 4.9 6.5 6.5 6.5 4.9 5.4 4.1 4.7 6.1 6.3 6.5 6.2 6.8 6.3
9.4 9.3 8.6 8.4 7.9 6.8 5.4 6.6 6.5 7.0 6.4 3.9 6.5 6.4 7.2 5.3 5.4 5.9 5.3 4.9 3.6 3.1 5.9 6.6 6.4 6.8 6.5 6.5 6.5 5.6 5.3 5.0 4.4 5.4 4.0 3.3 4.3 3.5 2.8 4.2 4.4 5.0 5.9 5.5
9.4 9.4 8.8 8.4 7.6 5.5 5.6 5.9 6.4 7.7 6.8 6.8 5.9 6.5 5.8 5.1 6.1 4.4 4.9 4.4 0.2 3.3 5.1 6.0 6.7 6.5 6.9 6.5 6.5 5.3 5.1 5.2 5.0 4.4 4.8 4.5 3.7 4.4 4.3 2.7 3.4 4.0 3.7 3.2
9.1 8.3 9.0 8.7 7.9 7.0 6.1 5.7 7.4 6.1 5.8 4.8 6.5 6.5 5.6 5.2 4.8 4.6 4.3 0.8 0.7 3.1 4.4 5.6 5.9 6.4 6.0 6.5 5.4 4.4 5.1 5.5 5.3 5.3 5.3 5.1 5.1 5.3 5.2 4.2 4.2 4.6 4.9 5.3
7.6 7.9 8.8 6.6 6.0 5.9 5.9 7.6 6.4 5.1 4.4 0.8 3.0 6.5 6.5 5.6 5.8 7.0 5.4 2.4 6.2 4.0 5.0 4.6 6.5 6.5 6.5 5.9 3.4 3.7 4.3 5.0 5.6 5.8 6.3 6.6 6.4 6.6 6.3 6.2 6.5 6.7 6.5 6.4
7.0 5.9 6.4 5.3 5.8 6.9 7.0 6.0 5.1 3.9 3.4 2.8 4.1 4.8 6.5 5.7 6.2 6.1 5.6 2.1 6.5 6.5 6.2 5.4 6.5 6.5 2.5 3.2 3.8 4.8 5.3 5.1 6.4 6.9 7.1 7.3 7.2 7.1 6.9 6.7 7.2 7.0 6.8 6.7
4.5 4.5 4.9 5.3 6.0 5.9 4.6 4.7 4.9 4.1 4.1 4.8 4.2 3.8 5.7 5.3 6.3 6.5 5.6 6.5 6.5 6.5 6.5 6.5 6.5 6.5 4.1 4.9 5.2 6.0 6.3 6.6 6.5 7.1 7.4 7.5 7.4 7.4 7.3 7.3 7.5 7.1 6.9 6.7
5.3 5.3 5.0 4.6 3.9 2.7 6.0 6.5 6.4 6.4 6.5 5.4 4.0 5.3 5.2 5.6 6.9 5.8 5.6 6.5 6.5 6.5 6.5 6.5 6.5 6.5 3.9 5.1 5.9 6.3 7.4 7.6 7.5 7.8 7.7 7.5 8.0 7.5 7.2 7.5 7.5 7.2 7.0 7.1
5.0 4.2 1.6 2.7 3.1 6.5 6.5 6.5 6.5 6.5 6.8 6.8 5.3 5.1 5.5 6.7 6.5 4.6 6.3 6.5 6.5 6.4 6.5 6.5 6.5 5.2 6.6 6.7 7.4 7.5 7.8 8.0 7.3 7.5 7.4 7.2 8.0 7.6 7.2 7.2 7.2 6.9 6.7 7.1
2.3 1.7 6.5 6.3 6.5 6.5 6.5 6.5 6.5 6.9 7.2 6.3 5.5 5.6 6.7 6.4 5.8 6.4 6.5 6.5 6.4 6.5 6.5 6.5 6.3 5.7 7.1 7.3 7.7 7.5 6.9 7.1 6.5 6.5 6.4 6.5 6.7 6.7 6.7 6.9 6.7 6.4 6.5 6.8
1.3 3.2 6.5 6.5 6.7 6.7 6.7 6.8 7.0 7.3 6.9 6.6 6.4 6.5 6.5 6.5 6.5 6.5 6.5 6.5 6.5 6.5 6.5 6.5 6.3 6.7 7.2 7.2 7.5 6.9 6.6 6.1 4.9 4.7 4.1 5.1 5.2 5.2 5.4 6.2 6.0 5.8 6.3 6.0
3.3 5.1 5.4 7.0 6.8 6.7 6.8 6.8 7.0 7.3 6.1 6.8 6.3 6.3 6.5 6.5 6.5 6.5 6.5 6.5 6.5 6.5 6.6 7.1 6.9 7.1 7.1 7.0 7.0 6.9 6.9 6.6 6.0 5.8 5.8 6.3 6.1 5.1 4.8 5.5 5.6 5.4 5.6 5.2
2.8 6.4 7.3 7.2 7.1 6.9 7.2 6.7 7.0 6.2 6.6 6.5 5.9 6.5 6.5 6.3 6.5 6.5 6.5 6.5 6.5 7.0 7.3 7.7 7.5 6.9 6.9 6.7 7.0 7.0 7.1 6.7 6.4 5.9 6.3 5.9 5.8 4.8 5.0 4.6 5.6 5.1 5.4 5.0
Wind_Speed
21 23 24 25 26 26 9 3 3 5 8 4 2 3 6 8 10 5 4 6 6 5 8 6 2 4 5 19 14 6 5 3 7 11 4 7 15 18 12 5 5 3 3 5
21 23 24 26 25 23 2 3 3 4 5 3 3 4 6 3 8 5 3 3 2 2 4 5 6 7 7 17 13 10 9 4 2 3 1 1 8 5 12 4 2 7 6 5
21 22 23 24 25 21 3 3 4 4 4 1 3 5 3 6 5 2 2 1 1 4 3 5 4 7 3 12 7 13 12 4 6 5 2 3 5 9 10 14 9 7 6 3
20 21 23 23 22 18 3 2 2 1 4 4 6 3 4 8 5 2 5 1 1 1 2 5 2 4 9 6 2 2 4 4 6 12 9 6 7 5 10 18 17 10 7 10
22 23 22 22 22 12 3 1 1 2 4 4 5 3 3 4 4 3 4 1 4 1 4 6 4 2 1 5 3 2 1 4 8 11 5 6 5 6 13 8 5 12 6 5
22 21 23 20 19 7 1 1 2 2 4 3 2 3 3 6 6 6 6 2 0 4 3 4 8 9 9 8 4 4 3 3 1 6 9 10 5 7 3 5 12 7 2 6
22 24 22 22 18 9 2 2 1 2 4 3 7 9 12 15 9 6 4 2 2 3 6 7 6 6 11 10 14 7 4 3 6 3 2 4 5 10 17 18 13 14 12 13
23 24 22 21 19 15 2 2 2 2 3 3 10 8 8 5 6 4 3 5 1 5 3 3 5 4 4 1 4 4 11 6 2 3 5 6 2 6 5 5 7 13 13 14
23 23 22 22 21 15 3 2 2 1 1 4 4 6 8 3 2 4 2 2 3 5 1 2 0 2 3 3 5 6 11 16 7 3 3 6 5 12 8 5 2 11 13 14
24 24 22 22 19 13 3 1 3 3 2 2 2 4 4 3 2 1 3 5 5 3 2 0 1 2 3 3 4 5 5 4 2 6 2 4 11 16 6 5 2 10 9 10
23 23 22 19 18 11 2 2 1 0 1 4 1 2 4 3 2 1 3 2 3 2 3 2 2 0 2 3 2 3 2 3 3 3 3 2 16 4 5 4 5 8 8 10
23 22 21 18 16 9 3 1 2 1 2 3 2 4 4 3 3 2 1 2 2 1 2 0 1 2 1 2 1 4 2 1 1 3 3 4 5 7 6 7 6 7 8 9
22 20 18 17 16 4 2 2 2 1 2 3 2 2 3 4 4 1 2 1 1 1 3 3 2 1 2 1 2 2 6 3 2 1 3 3 7 6 8 8 7 9 9 8
21 19 15 15 13 2 4 2 2 2 1 2 3 2 2 2 5 5 1 2 2 0 0 2 0 1 5 2 3 3 1 4 3 2 4 4 4 8 9 10 10 11 9 8
20 16 12 12 11 3 7 3 3 3 1 2 3 3 2 3 4 5 5 3 2 2 2 2 2 2 3 2 3 3 2 1 2 2 3 3 6 5 7 8 10 11 10 12
18 16 10 7 7 4 2 0 2 6 3 2 2 1 2 5 2 5 5 2 2 2 2 2 2 4 3 3 2 3 3 2 3 3 4 5 7 7 4 3 5 6 4 6
18 17 9 4 1 3 2 2 2 3 2 0 2 1 4 4 2 2 2 3 1 3 2 2 2 4 4 2 2 5 6 4 3 3 5 4 4 3 8 4 7 7 4 4
19 17 9 8 6 3 1 2 5 2 3 3 2 3 2 5 3 2 1 2 3 4 2 2 2 2 2 3 4 4 5 5 2 7 3 4 5 6 7 5 5 7 8 9
21 14 4 3 2 1 2 2 9 12 3 3 2 1 3 5 2 1 1 2 3 1 2 2 2 2 4 3 3 3 4 2 5 6 4 5 4 5 6 7 7 8 9 10
12 2 2 1 1 6 2 3 3 4 3 3 2 1 2 2 3 2 2 2 1 2 1 3 3 0 3 4 4 4 5 3 5 4 6 6 7 6 8 7 6 7 8 9
3 2 0 1 6 2 3 2 3 2 4 2 2 1 1 2 0 2 1 0 1 3 1 3 2 2 3 4 3 3 4 3 4 5 4 5 6 6 7 8 7 8 9 8
1 1 2 2 3 3 5 1 2 4 0 3 1 2 2 3 2 2 3 2 2 2 1 3 2 2 3 3 3 4 4 5 6 6 7 6 8 6 7 7 7 8 9 9
2 3 4 3 3 7 4 3 3 3 2 3 3 3 2 2 3 1 3 4 2 2 3 2 2 2 3 3 4 6 5 6 6 7 8 8 7 7 7 8 8 8 8 8
3 3 5 3 4 3 3 2 2 2 2 3 1 2 2 2 3 1 4 2 3 3 3 1 1 2 4 4 5 5 6 5 6 6 7 7 7 7 6 7 6 6 7 9
3 4 4 4 2 3 2 3 2 3 3 2 1 0 2 3 3 3 2 4 3 3 1 0 1 2 3 4 5 4 5 4 4 4 4 5 6 5 6 6 6 6 6 7
3 6 3 2 2 3 3 4 3 3 4 1 2 2 3 4 2 4 4 3 3 2 2 2 2 4 3 3 5 5 4 4 4 4 4 5 5 5 5 6 5 7 6 7
5 4 6 4 3 3 3 3 4 3 2 2 2 4 3 1 3 3 3 2 2 4 3 4 5 5 5 4 4 5 4 5 4 4 4 5 4 5 5 6 6 6 6 6
Wind_Direction
1 360 354 352 352 352 13 25 345 311 350 49 45 5 327 316 331 19 15 8 38 6 344 317 297 352 37 357 349 347 344 261 217 210 231 205 201 199 179 164 182 212 146 274
5 1 358 354 351 356 356 342 279 317 36 51 356 318 304 295 317 354 358 41 82 12 8 332 11 347 12 14 5 354 348 268 195 185 150 332 218 210 202 128 101 189 149 248
2 1 359 359 357 353 62 19 340 325 32 29 64 330 284 338 326 134 357 33 115 345 307 157 284 313 342 335 334 345 351 276 290 273 290 346 233 210 216 205 222 186 202 163
358 352 351 351 356 356 72 32 295 219 307 329 321 270 280 326 334 13 23 92 93 249 300 317 359 337 328 327 329 51 26 290 359 313 292 279 269 297 236 215 222 202 197 179
347 349 349 348 349 5 66 304 324 340 276 285 315 299 282 316 345 340 307 133 314 157 179 192 254 273 292 275 301 41 150 264 344 312 321 247 236 15 347 277 311 231 171 101
348 352 347 347 350 20 288 265 289 248 277 278 297 262 289 312 307 257 235 218 224 288 273 248 240 235 250 234 221 269 293 299 13 275 335 320 236 18 9 119 33 337 259 40
352 346 342 343 352 6 190 269 256 271 269 243 279 290 291 289 286 241 300 31 163 275 337 307 286 265 257 241 247 192 204 226 261 259 354 272 60 28 72 86 39 23 21 0
346 339 344 346 345 345 170 191 214 243 273 268 288 282 288 290 262 267 254 261 312 318 314 331 331 328 338 294 211 188 218 217 282 239 186 117 46 39 352 355 65 13 5 351
343 337 342 339 341 342 105 215 171 216 248 255 302 294 258 233 258 326 277 322 323 20 289 59 26 294 320 297 348 17 348 205 188 225 213 218 19 332 319 313 92 2 1 357
342 338 341 337 343 346 112 237 198 272 239 266 8 306 306 87 64 151 322 339 346 12 352 289 242 293 246 348 14 344 352 351 228 286 33 84 343 322 295 213 6 344 351 357
339 338 337 343 342 357 116 254 36 353 224 276 197 296 4 12 19 18 289 34 331 17 42 93 276 359 271 83 37 7 49 340 23 344 34 99 350 1 56 336 337 349 346 348
337 337 338 339 345 359 114 52 347 28 262 258 301 288 307 290 310 174 350 185 235 192 85 289 234 277 341 128 232 350 34 163 48 42 91 76 8 62 0 344 344 352 344 347
335 335 338 341 344 7 122 161 272 19 291 300 359 339 349 23 22 119 114 281 288 335 187 184 254 60 354 62 55 105 357 351 75 27 351 1 48 32 14 355 348 338 347 345
334 332 334 339 349 36 129 112 336 82 293 274 277 324 32 51 46 46 67 241 336 123 84 190 3 64 31 63 85 77 274 356 345 313 336 22 360 7 349 345 350 349 348 350
333 329 326 339 345 113 103 90 31 42 293 271 284 319 6 27 59 59 42 50 62 35 44 35 56 67 85 34 71 33 355 229 82 251 249 211 267 298 331 335 339 336 344 342
329 324 313 334 5 157 63 308 323 352 119 63 341 303 39 1 69 61 46 49 52 79 74 46 47 26 87 86 81 285 299 286 203 279 266 225 260 277 294 285 284 296 332 311
324 318 292 274 42 100 156 194 259 342 72 205 327 337 351 341 10 24 48 40 56 86 90 59 54 21 43 72 74 293 320 316 284 299 321 352 0 297 311 295 295 317 283 260
321 314 276 255 187 109 303 295 353 52 93 41 77 302 3 9 332 359 75 49 29 12 110 60 74 39 47 60 275 296 315 329 350 337 323 252 291 320 321 312 318 341 341 339
319 301 266 90 74 183 238 327 86 63 100 115 74 65 289 351 320 303 10 82 52 245 77 52 86 26 48 250 267 307 303 296 291 310 315 334 329 321 329 334 340 346 341 341
320 48 111 256 216 307 63 23 24 20 349 36 88 142 296 5 340 314 358 26 104 67 302 93 62 17 257 268 259 270 313 311 337 334 353 347 339 346 341 332 339 338 334 329
30 28 290 298 338 65 33 61 61 350 20 14 311 155 266 312 270 293 32 125 78 75 83 94 26 350 270 312 325 325 330 346 327 318 330 333 325 343 338 337 342 340 337 334
219 304 46 22 34 37 81 352 12 54 105 338 13 302 240 297 296 20 350 77 42 100 73 73 50 259 267 318 324 332 345 352 354 349 349 344 344 352 333 335 342 339 333 333
50 47 47 41 335 44 61 355 346 15 3 13 341 324 327 306 23 32 43 64 63 88 47 75 213 293 341 340 347 350 349 358 359 349 350 338 347 352 346 341 343 334 332 337
70 71 23 62 4 48 39 348 340 354 354 332 307 287 335 18 16 5 76 35 50 56 53 240 265 284 332 347 342 346 337 347 344 339 342 343 343 342 337 341 336 335 339 342
59 44 41 54 96 55 32 340 353 7 326 331 347 55 24 12 48 14 31 41 59 46 51 65 278 300 325 341 345 336 328 326 320 312 319 322 328 335 330 335 333 337 339 343
66 40 29 86 72 20 3 354 346 343 325 269 34 50 53 40 27 45 24 64 47 31 4 28 352 326 303 337 335 324 314 315 316 323 322 328 334 335 320 327 338 343 343 340
46 37 18 20 69 33 358 334 330 304 313 43 43 48 14 319 42 40 25 41 2 327 3 349 348 17 0 333 327 321 313 318 325 325 326 320 329 337 349 348 336 340 342 328